カタログに戻る

STARLINK-32256

運用中通信VLEO
NORAD 60362·PAYLOAD·🇺🇸 United States

打ち上げ Aug 4, 2024 から Vandenberg Space Force Base

Loading…

次のパス (今後24時間)

TLE

最新Source: CelesTrak SupGP

元期: Sep 15, 2026, 02:02 UTC

1 60362C 24138H   26258.08520833 -.00015269  00000+0 -45115-3 0  2588
2 60362  53.1576 148.8191 0001292  84.6885 137.3259 15.34395441    11

AllMySatでSTARLINK-32256をリアルタイム追跡

Download on the App Store